Weather History for KMMH - June, 2013

Change the Weather History Date:

Thursday, June 20, 2013

  Actual Average (KBIH) Record (KBIH)
Temperature  
Mean Temperature 54 °F 73 °F  
Max Temperature 71 °F 94 °F 107 °F (1961)
Min Temperature 37 °F 52 °F 39 °F (1991)
Degree Days  
Heating Degree Days 11 0  
Month to date heating degree days 17  
Since 1 June heating degree days 17  
Since 1 July heating degree days 4175  
Cooling Degree Days 0 8  
Month to date cooling degree days 120  
Year to date cooling degree days 188  
Since 1 June cooling degree days 120  
Growing Degree Days 4 (Base 50)    
Moisture  
Dew Point 19 °F    
Average Humidity 27    
Maximum Humidity 54    
Minimum Humidity 9    
Precipitation  
Precipitation 0.00 in 0.01 in 0.21 in (1951)
Month to date precipitation 0.14  
Year to date precipitation 3.02  
Snow  
Snow 0.00 in 0.00 in - ()
Month to date snowfall 0.0  
Since 1 June snowfall 0.0  
Since 1 July snowfall 8.0  
Snow Depth -    
Sea Level Pressure  
Sea Level Pressure 30.08 in    
Wind  
Wind Speed 9 mph (WNW)    
Max Wind Speed 24 mph    
Max Gust Speed 33 mph    
Visibility 10 miles    
Events      
T = Trace of Precipitation, MM = Missing Value Source: NWS Daily Summary

Daily Weather History Graph

Daily Weather History Graph

Search for Another Location

Airport or City:

Trip Planner

Search our weather history database for the weather conditions in past years. The results will help you decide how hot, cold, wet, or windy it might be!

Date:

Astronomy

Jun. 20, 2013 Rise Set
Actual Time 5:34 AM PDT 8:20 PM PDT
Civil Twilight 5:02 AM PDT 8:51 PM PDT
Nautical Twilight 4:23 AM PDT 9:30 PM PDT
Astronomical Twilight 3:39 AM PDT 10:14 PM PDT
Moon 5:29 PM PDT (6/20) 3:01 AM PDT (6/20)
Length of Visible Light 15h 48m
Length of Day
14h 46m
Waxing Gibbous, 89% of the Moon is Illuminated
Jun 20
Waxing Gibbous
Jun 23
Full
Jun 29
Last Quarter
Jul 8
New
Jul 15
First Quarter

Hourly Weather History & Observations

Time (PDT) Temp. Windchill Dew Point Humidity Pressure Visibility Wind Dir Wind Speed Gust Speed Precip Events Conditions
12:15 AM 44.6 °F 41.4 °F 14.0 °F 29% 30.09 in 10.0 mi East 5.8 mph - N/A   Clear
12:35 AM 44.6 °F - 17.6 °F 34% 30.09 in 10.0 mi Calm Calm - N/A   Clear
12:55 AM 41.0 °F - 17.6 °F 39% 30.09 in 10.0 mi Calm Calm - N/A   Clear
1:15 AM 41.0 °F 35.2 °F 14.0 °F 33% 30.10 in 10.0 mi SW 9.2 mph - N/A   Clear
1:35 AM 44.6 °F 39.2 °F 17.6 °F 34% 30.09 in 10.0 mi West 10.4 mph - N/A   Clear
1:55 AM 42.8 °F 39.3 °F 14.0 °F 31% 30.09 in 10.0 mi WSW 5.8 mph - N/A   Clear
2:15 AM 41.0 °F 35.8 °F 14.0 °F 33% 30.08 in 10.0 mi West 8.1 mph - N/A   Clear
2:35 AM 41.0 °F 35.8 °F 14.0 °F 33% 30.08 in 10.0 mi West 8.1 mph - N/A   Clear
2:55 AM 42.8 °F 38.6 °F 14.0 °F 31% 30.08 in 10.0 mi West 6.9 mph - N/A   Clear
3:15 AM 41.0 °F 35.8 °F 14.0 °F 33% 30.08 in 10.0 mi WNW 8.1 mph - N/A   Clear
3:35 AM 41.0 °F 35.2 °F 15.8 °F 36% 30.08 in 10.0 mi West 9.2 mph - N/A   Clear
3:55 AM 42.8 °F 36.6 °F 15.8 °F 34% 30.08 in 10.0 mi West 11.5 mph - N/A   Clear
4:15 AM 41.0 °F 35.2 °F 15.8 °F 36% 30.07 in 10.0 mi West 9.2 mph - N/A   Clear
4:35 AM 39.2 °F 34.2 °F 15.8 °F 39% 30.07 in 10.0 mi West 6.9 mph - N/A   Clear
4:55 AM 39.2 °F 34.2 °F 17.6 °F 42% 30.07 in 10.0 mi WNW 6.9 mph - N/A   Clear
5:15 AM 39.2 °F 34.2 °F 17.6 °F 42% 30.07 in 10.0 mi WNW 6.9 mph - N/A   Clear
5:35 AM 37.4 °F 33.8 °F 17.6 °F 45% 30.08 in 10.0 mi NW 4.6 mph - N/A   Clear
5:55 AM 37.4 °F - 15.8 °F 41% 30.08 in 10.0 mi Calm Calm - N/A   Clear
6:15 AM 37.4 °F 32.8 °F 15.8 °F 41% 30.09 in 10.0 mi WNW 5.8 mph - N/A   Clear
6:35 AM 42.8 °F 37.5 °F 17.6 °F 36% 30.09 in 10.0 mi West 9.2 mph - N/A   Clear
6:55 AM 46.4 °F 41.9 °F 19.4 °F 34% 30.10 in 10.0 mi West 9.2 mph - N/A   Clear
7:15 AM 46.4 °F 40.7 °F 19.4 °F 34% 30.10 in 10.0 mi West 12.7 mph - N/A   Clear
7:35 AM 50.0 °F - 19.4 °F 30% 30.10 in 10.0 mi WNW 8.1 mph - N/A   Clear
7:55 AM 51.8 °F - 19.4 °F 28% 30.10 in 10.0 mi NW 5.8 mph - N/A   Clear
8:15 AM 53.6 °F - 17.6 °F 24% 30.09 in 10.0 mi WNW 5.8 mph - N/A   Clear
8:35 AM 55.4 °F - 17.6 °F 23% 30.09 in 10.0 mi Calm Calm - N/A   Clear
8:55 AM 57.2 °F - 17.6 °F 21% 30.09 in 10.0 mi East 5.8 mph - N/A   Clear
9:15 AM 57.2 °F - 17.6 °F 21% 30.09 in 10.0 mi SE 4.6 mph - N/A   Clear
9:35 AM 59.0 °F - 19.4 °F 22% 30.08 in 10.0 mi ESE 3.5 mph - N/A   Clear
9:55 AM 60.8 °F - 19.4 °F 20% 30.08 in 10.0 mi ESE 5.8 mph - N/A   Clear
10:15 AM 62.6 °F - 19.4 °F 19% 30.08 in 10.0 mi ESE 6.9 mph - N/A   Clear
10:35 AM 62.6 °F - 15.8 °F 16% 30.08 in 10.0 mi ESE 8.1 mph - N/A   Clear
10:55 AM 64.4 °F - 10.4 °F 12% 30.07 in 10.0 mi East 5.8 mph 16.1 mph N/A   Clear
11:15 AM 66.2 °F - 8.6 °F 11% 30.08 in 10.0 mi East 9.2 mph - N/A   Clear
11:35 AM 66.2 °F - 10.4 °F 11% 30.07 in 10.0 mi East 6.9 mph - N/A   Clear
11:55 AM 68.0 °F - 10.4 °F 11% 30.07 in 10.0 mi East 5.8 mph - N/A   Clear
12:15 PM 68.0 °F - 8.6 °F 10% 30.07 in 10.0 mi Calm Calm - N/A   Clear
12:35 PM 71.6 °F - 10.4 °F 9% 30.06 in 10.0 mi NW 16.1 mph 26.5 mph N/A   Clear
12:55 PM 71.6 °F - 8.6 °F 9% 30.06 in 10.0 mi WNW 17.3 mph 27.6 mph N/A   Clear
1:15 PM 71.6 °F - 10.4 °F 9% 30.06 in 10.0 mi NW 20.7 mph 31.1 mph N/A   Clear
1:35 PM 71.6 °F - 10.4 °F 9% 30.06 in 10.0 mi WNW 23.0 mph 29.9 mph N/A   Clear
1:55 PM 71.6 °F - 12.2 °F 10% 30.05 in 10.0 mi NW 18.4 mph 25.3 mph N/A   Clear
2:15 PM 71.6 °F - 12.2 °F 10% 30.06 in 10.0 mi NW 21.9 mph 29.9 mph N/A   Clear
2:35 PM 71.6 °F - 14.0 °F 11% 30.06 in 10.0 mi WNW 23.0 mph 32.2 mph N/A   Clear
2:55 PM 71.6 °F - 15.8 °F 12% 30.06 in 10.0 mi NW 24.2 mph 31.1 mph N/A   Clear
3:15 PM 71.6 °F - 15.8 °F 12% 30.06 in 10.0 mi WNW 20.7 mph 31.1 mph N/A   Clear
3:35 PM 71.6 °F - 15.8 °F 12% 30.06 in 10.0 mi WNW 21.9 mph 31.1 mph N/A   Clear
3:55 PM 71.6 °F - 17.6 °F 13% 30.06 in 10.0 mi NW 19.6 mph 31.1 mph N/A   Clear
4:15 PM 71.6 °F - 19.4 °F 14% 30.07 in 10.0 mi WNW 20.7 mph 28.8 mph N/A   Clear
4:35 PM 69.8 °F - 19.4 °F 15% 30.07 in 10.0 mi WNW 20.7 mph 31.1 mph N/A   Clear
4:55 PM 69.8 °F - 19.4 °F 15% 30.07 in 10.0 mi WNW 20.7 mph 27.6 mph N/A   Clear
5:15 PM 69.8 °F - 19.4 °F 15% 30.07 in 10.0 mi WNW 21.9 mph 31.1 mph N/A   Clear
5:35 PM 68.0 °F - 23.0 °F 18% 30.07 in 10.0 mi WNW 21.9 mph 28.8 mph N/A   Clear
5:55 PM 68.0 °F - 26.6 °F 21% 30.07 in 10.0 mi WNW 23.0 mph 31.1 mph N/A   Clear
6:15 PM 66.2 °F - 26.6 °F 23% 30.07 in 10.0 mi WNW 19.6 mph 31.1 mph N/A   Clear
6:35 PM 64.4 °F - 28.4 °F 26% 30.07 in 10.0 mi WNW 23.0 mph 27.6 mph N/A   Clear
6:55 PM 62.6 °F - 28.4 °F 27% 30.08 in 10.0 mi WNW 21.9 mph 28.8 mph N/A   Clear
7:15 PM 62.6 °F - 28.4 °F 27% 30.08 in 10.0 mi WNW 20.7 mph 33.4 mph N/A   Clear
7:35 PM 60.8 °F - 30.2 °F 31% 30.08 in 10.0 mi WNW 23.0 mph 32.2 mph N/A   Clear
7:55 PM 59.0 °F - 30.2 °F 34% 30.08 in 10.0 mi WNW 16.1 mph 27.6 mph N/A   Clear
8:15 PM 57.2 °F - 30.2 °F 36% 30.09 in 10.0 mi WNW 17.3 mph 24.2 mph N/A   Clear
8:35 PM 55.4 °F - 32.0 °F 41% 30.09 in 10.0 mi West 11.5 mph - N/A   Clear
8:55 PM 55.4 °F - 28.4 °F 36% 30.09 in 10.0 mi Calm Calm - N/A   Clear
9:15 PM 51.8 °F - 30.2 °F 44% 30.10 in 10.0 mi WNW 6.9 mph - N/A   Clear
9:35 PM 51.8 °F - 30.2 °F 44% 30.10 in 10.0 mi West 9.2 mph - N/A   Clear
9:55 PM 51.8 °F - 30.2 °F 44% 30.11 in 10.0 mi NW 4.6 mph - N/A   Clear
10:15 PM 50.0 °F - 28.4 °F 43% 30.11 in 10.0 mi Calm Calm - N/A   Clear
10:35 PM 51.8 °F - 28.4 °F 41% 30.11 in 10.0 mi Calm Calm - N/A   Clear
10:55 PM 50.0 °F - 26.6 °F 40% 30.11 in 10.0 mi Calm Calm - N/A   Clear
11:15 PM 48.2 °F - 28.4 °F 46% 30.12 in 10.0 mi South 3.5 mph - N/A   Clear
11:35 PM 46.4 °F 42.9 °F 30.2 °F 53% 30.11 in 10.0 mi ESE 6.9 mph - N/A   Clear
11:55 PM 48.2 °F - 32.0 °F 54% 30.12 in 10.0 mi ESE 5.8 mph - N/A   Clear